This is the latest recevied weather packets stored in our database for station/object VR2MW-X. If no packets are shown the sender has not sent any weather packets the latest 10 day(s).
| Time | Temp. | Humidity | Pressure | Rain* | Wind** | Luminosity | Snow |
|---|---|---|---|---|---|---|---|
| 1777796065 | 22.78° C | 97% | 1010.5 hPa | - | - | - | - |
| 1777795455 | 22.78° C | 97% | 1010.1 hPa | - | - | - | - |
| 1777794844 | 22.78° C | 96% | 1010.1 hPa | - | - | - | - |
| 1777794233 | 22.78° C | 96% | 1010.1 hPa | - | - | - | - |
| 1777793623 | 22.78° C | 96% | 1010.5 hPa | - | - | - | - |
| 1777793012 | 22.78° C | 95% | 1010.7 hPa | - | - | - | - |
| 1777792401 | 22.78° C | 94% | 1010.6 hPa | - | - | - | - |
| 1777791790 | 22.78° C | 92% | 1010.5 hPa | - | - | - | - |
| 1777791179 | 22.78° C | 90% | 1010.5 hPa | - | - | - | - |
| 1777790568 | 22.78° C | 92% | 1010.6 hPa | - | - | - | - |
| 1777789956 | 23.89° C | 89% | 1010.7 hPa | - | - | - | - |
| 1777789345 | 23.89° C | 91% | 1011.1 hPa | - | - | - | - |
| 1777788734 | 23.89° C | 84% | 1011 hPa | - | - | - | - |
| 1777788124 | 26.11° C | 76% | 1011.1 hPa | - | - | - | - |
| 1777787514 | 27.22° C | 73% | 1011 hPa | - | - | - | - |
| 1777786903 | 27.22° C | 73% | 1011.2 hPa | - | - | - | - |
| 1777786292 | 27.22° C | 72% | 1011.2 hPa | - | - | - | - |
| 1777785682 | 27.78° C | 68% | 1011.2 hPa | - | - | - | - |
| 1777785072 | 30° C | 70% | 1011.2 hPa | - | - | - | - |
| 1777784461 | 30° C | 71% | 1011.1 hPa | - | - | - | - |
| 1777783851 | 30° C | 71% | 1011.1 hPa | - | - | - | - |
| 1777783239 | 30° C | 71% | 1011 hPa | - | - | - | - |
| 1777782625 | 30° C | 70% | 1011 hPa | - | - | - | - |
| 1777782014 | 30° C | 70% | 1011.1 hPa | - | - | - | - |
| 1777781401 | 30° C | 70% | 1011.1 hPa | - | - | - | - |
* Rain since midnight (hover to see other rain measurements)
** Current wind speed in m/s (hover to see current wind gust speed)